{"data":{"norad_id":46557,"epoch":"2026-05-25T03:46:12.212256Z","epoch_age_seconds":55240,"freshness":"FRESH","line1":"1 46557U 20070AB  26145.15708579  .00112770  00000+0  79765-3 0  9990","line2":"2 46557  53.0397 108.1253 0008111  69.3002 290.8884 15.73142672312224","mean_motion":15.73142672,"eccentricity":0.0008111,"inclination_deg":53.0397,"raan_deg":108.1253,"arg_perigee_deg":69.3002,"mean_anomaly_deg":290.8884,"bstar":0.00079765,"rev_number":31222,"period_min":91.536516403135,"perigee_km":344.46449496199,"apogee_km":355.37875166072,"semimajor_km":6728.0586233114,"source":"CELESTRAK","updated_at":"2026-05-25T13:38:16.511229Z"}}